NATIONAL KEY DEER NWR FL US current weather conditions

sailwx.info

Wind from 299 at 6 knots gusting 12

Air temperature 28.3° C
Dewpoint 19.8° C

Last reported at 2014-Oct-31 19:38 UTC.
Time now 2014-Oct-31 22:57 UTC

Location: N 24°43' W 081°23'.
View on Google Maps.

See reports from other nearby stations

  
Tides and Currents Weather Stations Pressure Air Temp Water Temp Dewpoint Dewpoint Depression Visibility Wind Speed Wind Dir Waves Ship Positions
date/time (UTC)wind fromknots sea level pressurealtimeterstation pressurevisibilityair tempwater tempwave heightnotes
2014-Oct-31 19:38 299 6 gusting 12 28.3
2014-Oct-31 18:38 291 6 gusting 11 28.9
2014-Oct-31 17:38 308 6 gusting 12 29.4
2014-Oct-31 16:38 278 3 gusting 10 29.4
2014-Oct-31 15:38 272 5 gusting 10 28.3
2014-Oct-31 14:38 275 4 gusting 8 27.8
2014-Oct-31 13:38 254 3 gusting 6 27.8
2014-Oct-31 12:38 269 2 gusting 4 24.4
2014-Oct-31 11:38 254 1 gusting 3 21.1
2014-Oct-31 10:38 242 1 gusting 3 22.2
2014-Oct-31 09:38 245 2 gusting 4 21.7
2014-Oct-31 08:38 202 1 gusting 2 19.4
2014-Oct-31 07:38 192 1 gusting 2 19.4
2014-Oct-31 06:38 203 1 gusting 2 19.4
2014-Oct-31 05:38 244 0 gusting 1 19.4
2014-Oct-31 04:38 172 0 gusting 1 20.0
2014-Oct-31 03:38 19.4
2014-Oct-31 02:38 192 0 gusting 1 20.0
2014-Oct-31 01:38 167 1 gusting 1 20.6
2014-Oct-31 00:38 21.1
2014-Oct-30 23:38 310 1 gusting 3 23.3
2014-Oct-30 22:38 294 2 gusting 4 26.1
2014-Oct-30 21:38 247 2 gusting 6 29.4
2014-Oct-30 20:38 094 1 gusting 6 30.0
2014-Oct-30 19:38 063 3 gusting 6 27.8
2014-Oct-30 18:38 062 4 gusting 6 29.4
2014-Oct-30 17:38 046 3 gusting 6 28.9
2014-Oct-30 16:38 060 3 gusting 6 28.9
2014-Oct-30 15:38 045 2 gusting 6 28.9
2014-Oct-30 14:38 061 3 gusting 6 28.3
2014-Oct-30 13:38 064 2 gusting 4 27.8
2014-Oct-30 12:38 032 1 gusting 4 24.4
2014-Oct-30 11:38 037 2 gusting 3 21.7
2014-Oct-30 10:38 20.6
2014-Oct-30 09:38 21.7
2014-Oct-30 08:38 065 2 gusting 4 22.2
2014-Oct-30 07:38 060 1 gusting 4 23.9
2014-Oct-30 06:38 040 2 gusting 5 24.4
2014-Oct-30 05:38 059 2 gusting 5 23.3
2014-Oct-30 04:38 058 2 gusting 4 23.9
2014-Oct-30 03:38 077 2 gusting 3 22.8
2014-Oct-30 02:38 21.7
2014-Oct-30 01:38 21.7
2014-Oct-30 00:38 159 1 gusting 2 22.8
2014-Oct-29 23:38 119 0 gusting 4 23.9
2014-Oct-29 22:38 152 2 gusting 6 26.1